User: anonymous   Login
Location: Oronoko Observatory
(41.9167°N, 86.3833°W)
Time: 14:58:20
(UTC-04:00)
Language:

PAYLOAD A - Orbit

View from above orbital plane
View from above orbital plane
View from above satellite
View from above satellite

Ground track
Ground track

The orbit data is extracted from the following two-line orbital elements,

1 27840U 03031A   14297.49886132  .00000096  00000-0  42693-4 0  6813
2 27840 098.2265 320.8777 0099350 152.3651 339.6641 14.38734174594303
Epoch (UTC): 24 October 2014 11:58:21
Eccentricity: 0.0099350
inclination: 98.2265°
perigee height: 692 km
apogee height: 833 km
right ascension of ascending node: 320.8777°
argument of perigee: 152.3651°
revolutions per day: 14.38734174
mean anomaly at epoch: 339.6641°
orbit number at epoch: 59430

The dashed part of the orbit path shows where the satellite is in the earth's shadow,  

DLR